"2009-02-01 00:00:00",590755,13.24,300.3,1.798,0.369,8.42,103.9033,9.27,10.35,11.43,0,110.2,13.38,10.05,262.3
"2009-02-01 00:00:30",590756,14.62,307.4,6.156,1.352,10.79,103.9042,9.27,10.3,11.43,0,110.2,13.34,10.05,269.4
"2009-02-01 00:01:00",590757,15.07,310.4,6.112,1.112,12.13,103.9053,9.27,10.48,11.66,0,110.2,13.34,10.06,272.4
"2009-02-01 00:01:30",590758,14.58,313.9,4.682,0.657,13.51,103.9039,9.27,10.51,11.74,0,110.2,13.34,10.05,275.9
"2009-02-01 00:02:00",590759,15.59,313.2,4.32,0.94,13.3,103.9068,9.28,10.51,11.73,0,110.2,13.34,10.06,275.2
"2009-02-01 00:02:30",590760,13.16,301.4,8.23,1.844,12,103.9056,9.27,10.46,11.72,0,110.2,13.34,10.06,263.4
"2009-02-01 00:03:00",590761,11.95,294.4,3.375,0.71,8.9,103.9053,9.27,10.26,11.43,0,110.2,13.34,10.06,256.4
"2009-02-01 00:03:30",590762,12.08,296.3,7.057,0.965,10.9,103.9062,9.27,10.35,11.47,0,110.2,13.34,10.06,258.3
"2009-02-01 00:04:00",590763,12.27,300,9.08,1.261,10.82,103.908,9.28,10.33,11.51,0,110.2,13.34,10.06,262.0
"2009-02-01 00:04:30",590764,13.42,308.1,5.25,1.11,12.88,103.9112,9.29,10.46,11.67,0,110.2,13.34,10.07,270.1
"2009-02-01 00:05:00",590765,13.53,308.1,3.731,0.999,12.65,103.9112,9.29,10.47,11.66,0,110.2,13.34,10.07,270.1
"2009-02-01 00:05:30",590766,12.83,303.8,7.306,1.113,11.13,103.9089,9.28,10.46,11.64,0,110.2,13.34,10.07,265.8
"2009-02-01 00:06:00",590767,13.22,304.2,7.381,1.293,10.67,103.9101,9.28,10.25,11.5,0,110.2,13.34,10.07,266.2
"2009-02-01 00:06:30",590768,11.91,305,7.101,1.079,12.12,103.9101,9.28,10.41,11.71,0,110.2,13.34,10.07,267.0
"2009-02-01 00:07:00",590769,10.57,301.4,6.437,1.471,10.45,103.9051,9.27,10.34,11.75,0,110.2,13.34,10.06,263.4
"2009-02-01 00:07:30",590770,11.73,307,7.301,1.04,12.43,103.8902,9.23,10.43,11.91,0,110.2,13.34,10.02,269.0
"2009-02-01 00:08:00",590771,10.69,305.8,7.311,1.036,11.62,103.8823,9.21,10.39,11.9,0,110.2,13.34,10.00,267.8
"2009-02-01 00:08:30",590772,10.12,302.5,7.22,1.267,11.34,103.8832,9.22,10.38,11.88,0,110.2,13.34,10.00,264.5
"2009-02-01 00:09:00",590773,9.9,300.7,5.325,0.946,9.91,103.8847,9.22,10.2,11.7,0,110.2,13.34,10.00,262.7
"2009-02-01 00:09:30",590774,11.21,303.3,6.65,1.423,11.54,103.885,9.22,10.35,11.9,0,110.2,13.34,10.00,265.3
"2009-02-01 00:10:00",590775,11.68,300,8.02,1.453,11.73,103.878,9.2,10.24,11.87,0,110.2,13.34,9.99,262.0
"2009-02-01 00:10:30",590776,12.16,301.9,5.222,0.875,13.58,103.8674,9.17,10.4,12.15,0,110.1,13.34,9.96,263.9
"2009-02-01 00:11:00",590777,11.19,309.4,7.043,1.262,12.23,103.8578,9.15,10.34,12.13,0,110.1,13.35,9.93,271.4
"2009-02-01 00:11:30",590778,11.29,309.3,7.269,1.603,10.98,103.8581,9.15,10.23,11.89,0,110.1,13.35,9.94,271.3
"2009-02-01 00:12:00",590779,10.03,308.8,12.02,1.114,10.21,103.8596,9.15,10.2,11.71,0,110.1,13.35,9.94,270.8
"2009-02-01 00:12:30",590780,10,295.5,4.599,1.226,9.51,103.8565,9.15,10.24,12,0,110.1,13.35,9.93,257.5
"2009-02-01 00:13:00",590781,11.91,307,8.21,1.694,12.34,103.8404,9.11,10.28,12.09,0,110.1,13.35,9.89,269.0
"2009-02-01 00:13:30",590782,13.77,305.1,6.883,1.397,13.26,103.8334,9.09,10.29,11.81,0,110.1,13.35,9.87,267.1
"2009-02-01 00:14:00",590783,12.63,304.8,5.78,1.297,11.77,103.828,9.07,10.2,11.72,0,110.1,13.35,9.86,266.8
"2009-02-01 00:14:30",590784,13.4,305.6,6.297,1.411,12.09,103.8275,9.07,10.26,11.73,0,110.1,13.35,9.86,267.6
"2009-02-01 00:15:00",590785,12.72,305.3,9.24,1.494,10.65,103.8266,9.07,10.08,11.71,0,110.1,13.35,9.85,267.3
"2009-02-01 00:15:30",590786,13.17,307.4,6.784,1.016,11.79,103.8266,9.07,10.25,12.05,0,110.1,13.35,9.85,269.4
"2009-02-01 00:16:00",590787,13.68,312.3,7.059,1.167,12.25,103.8218,9.06,10.19,12.08,0,110.1,13.35,9.84,274.3
"2009-02-01 00:16:30",590788,12.88,306.8,6.138,1.2,12.17,103.8094,9.03,10.17,12.06,0,110.1,13.35,9.81,268.8
"2009-02-01 00:17:00",590789,13.01,302.8,4.708,1.629,10.43,103.7942,8.99,10.12,11.99,0,110.1,13.35,9.77,264.8
"2009-02-01 00:17:30",590790,13.79,306.6,5.941,1.368,12.19,103.7927,8.98,10.17,12.08,0,110.1,13.35,9.77,268.6
"2009-02-01 00:18:00",590791,13.28,302.8,6.397,1.404,12.07,103.7927,8.98,10.09,12.05,0,110.1,13.35,9.77,264.8
"2009-02-01 00:18:30",590792,13.8,304.8,6.742,1.252,12,103.7927,8.98,10.19,12.24,0,110.1,13.35,9.77,266.8
"2009-02-01 00:19:00",590793,13.7,307.3,6.744,1.241,12.14,103.7865,8.97,10.15,12.25,0,110.1,13.36,9.75,269.3
"2009-02-01 00:19:30",590794,14.78,308.4,5.557,0.993,12.76,103.7634,8.91,10.19,12.33,0,110.1,13.36,9.69,270.4
"2009-02-01 00:20:00",590795,13.28,302,5.476,1.463,10.26,103.7589,8.9,9.89,12.07,0,110.1,13.36,9.68,264.0
"2009-02-01 00:20:30",590796,13.33,302.7,6.441,1.252,11.88,103.7589,8.9,10.1,12.36,0,110.1,13.36,9.68,264.7
"2009-02-01 00:21:00",590797,14.35,305.4,6.701,1.057,11.88,103.7589,8.9,10.03,12.26,0,110.1,13.36,9.68,267.4
"2009-02-01 00:21:30",590798,14.86,309.2,5.103,1.043,12.77,103.7589,8.9,10.11,12.28,0,110.1,13.36,9.68,271.2
"2009-02-01 00:22:00",590799,14.58,311.4,5.387,1.148,12.57,103.7589,8.9,10.12,12.34,0,110.1,13.36,9.68,273.4
"2009-02-01 00:22:30",590800,14.45,308.8,4.436,0.825,12.96,103.7589,8.9,10.14,12.35,0,110.1,13.36,9.68,270.8
"2009-02-01 00:23:00",590801,14.75,308.9,3.215,0.644,12.85,103.7589,8.9,10.12,12.44,0,110.1,13.36,9.68,270.9
"2009-02-01 00:23:30",590802,13.24,300.6,6.406,1.071,9.47,103.7578,8.89,9.94,12.37,0,110.1,13.36,9.68,262.6
"2009-02-01 00:24:00",590803,14.67,303,6.375,1.252,11.13,103.7487,8.87,9.99,12.5,0,110.1,13.36,9.65,265.0
"2009-02-01 00:24:30",590804,14.98,300.7,6.326,1.356,10.59,103.7276,8.82,9.87,12.54,0,110.1,13.36,9.60,262.7
"2009-02-01 00:25:00",590805,15.91,306.8,3.572,0.678,13,103.725,8.81,10.11,12.9,0,110.1,13.36,9.59,268.8
"2009-02-01 00:25:30",590806,15.4,304.5,6.081,0.981,12.75,103.725,8.81,10.08,12.89,0,110.1,13.36,9.59,266.5
"2009-02-01 00:26:00",590807,15.62,306.5,4.281,0.585,13.35,103.725,8.81,10.05,12.85,0,110.1,13.36,9.59,268.5
"2009-02-01 00:26:30",590808,15.83,303.7,5.879,1.179,11.88,103.7199,8.8,9.98,12.77,0,110.1,13.36,9.58,265.7
"2009-02-01 00:27:00",590809,15.9,305.2,5.171,0.987,12.04,103.7027,8.75,10.04,12.83,0,110.1,13.36,9.54,267.2
"2009-02-01 00:27:30",590810,15.1,305.6,4.477,1.022,12,103.6912,8.72,10,12.97,0,110.1,13.37,9.51,267.6
"2009-02-01 00:28:00",590811,15.81,307.4,3.851,0.738,12.68,103.6912,8.72,10.01,12.85,0,110.1,13.36,9.51,269.4
"2009-02-01 00:28:30",590812,16,311.9,3.389,0.828,12.87,103.6917,8.73,10,12.55,0,110.1,13.36,9.51,273.9
"2009-02-01 00:29:00",590813,15.62,312.2,4.663,0.834,12.52,103.692,8.73,9.99,12.37,0,110.1,13.36,9.51,274.2
"2009-02-01 00:29:30",590814,15.4,310.8,4.49,0.759,12.38,103.694,8.73,10.01,12.35,0,110.2,13.36,9.51,272.8
"2009-02-01 00:30:00",590815,16.11,306.6,4.629,0.801,12.29,103.7001,8.75,10.01,12.56,0,110.1,13.36,9.53,268.6
"2009-02-01 00:30:30",590816,15.06,306.1,4.738,1.231,10.58,103.6994,8.75,9.92,12.56,0,110.1,13.36,9.53,268.1
"2009-02-01 00:31:00",590817,15.13,306.5,7.673,1.257,11.24,103.7029,8.75,9.84,12.35,0,110.1,13.36,9.54,268.5
"2009-02-01 00:31:30",590818,14.03,302.3,6.282,1.137,10.12,103.7084,8.77,9.84,12.34,0,110.1,13.37,9.55,264.3
"2009-02-01 00:32:00",590819,15.16,309.6,4.448,1.094,12.31,103.7195,8.8,9.92,12.36,0,110.1,13.37,9.58,271.6
"2009-02-01 00:32:30",590820,15.35,312.8,4.799,1.026,13.15,103.7339,8.83,10.01,12.34,0,110.1,13.37,9.62,274.8
"2009-02-01 00:33:00",590821,15.58,313.8,5.038,0.871,13.33,103.7439,8.86,9.98,12.28,0,110.1,13.37,9.64,275.8
"2009-02-01 00:33:30",590822,15.98,313,4.295,0.782,13.28,103.7517,8.88,10.03,12.27,0,110.1,13.37,9.66,275.0
"2009-02-01 00:34:00",590823,16.97,313.7,3.332,0.809,13.1,103.7549,8.89,10.05,12.28,0,110.1,13.37,9.67,275.7
"2009-02-01 00:34:30",590824,18.03,314.6,4.05,1.061,13.35,103.7552,8.89,10.06,12.03,0,110.1,13.37,9.67,276.6
"2009-02-01 00:35:00",590825,18.59,310.3,4.003,1.457,13.32,103.7561,8.89,10.05,11.8,0,110.1,13.37,9.67,272.3
"2009-02-01 00:35:30",590826,17.54,311.2,4.967,0.922,12.83,103.7583,8.9,10.08,11.85,0,110.1,13.37,9.68,273.2
"2009-02-01 00:36:00",590827,16.82,315.5,4.737,0.99,12.73,103.7736,8.94,10.08,11.99,0,110,13.37,9.72,277.5
"2009-02-01 00:36:30",590828,15.96,318.5,3.141,1.291,12.69,103.7799,8.95,10.11,12.12,0,110.1,13.37,9.73,280.5
"2009-02-01 00:37:00",590829,15.79,310.2,4.854,1.167,12.47,103.7802,8.95,10.11,12.28,0,110.1,13.37,9.74,272.2
"2009-02-01 00:37:30",590830,16.89,310,4.538,0.985,12.6,103.7675,8.92,10.11,12.41,0,110.1,13.37,9.70,272.0
"2009-02-01 00:38:00",590831,17.72,312.5,4.799,0.993,12.64,103.7616,8.9,10.1,12.18,0,110,13.37,9.69,274.5
"2009-02-01 00:38:30",590832,17.24,309.3,3.863,0.785,12.3,103.7635,8.91,10.12,12.25,0,110.1,13.36,9.69,271.3
"2009-02-01 00:39:00",590833,16.98,308.6,5.183,0.926,12.24,103.7602,8.9,10.1,12.49,0,110.1,13.36,9.68,270.6
"2009-02-01 00:39:30",590834,17.83,304.7,4.271,0.788,12.26,103.7602,8.9,10.11,12.68,0,110.1,13.36,9.68,266.7
"2009-02-01 00:40:00",590835,15.67,310.4,4.227,0.885,12.4,103.7596,8.9,10.09,12.61,0,110.1,13.36,9.68,272.4
"2009-02-01 00:40:30",590836,16.89,308.3,3.63,0.952,12.5,103.7486,8.87,10.08,12.47,0,110.1,13.36,9.65,270.3
"2009-02-01 00:41:00",590837,16.79,306.4,4.578,0.757,12.58,103.7365,8.84,10.07,12.5,0,110.1,13.36,9.62,268.4
"2009-02-01 00:41:30",590838,16.79,307.9,4.893,0.837,12.6,103.7271,8.82,10.07,12.31,0,110.1,13.36,9.60,269.9
"2009-02-01 00:42:00",590839,16.95,311.5,4.363,0.739,12.5,103.7271,8.82,10.06,12.15,0,110.1,13.36,9.60,273.5
"2009-02-01 00:42:30",590840,16.93,313.6,3.854,0.884,12.58,103.7271,8.82,10.06,12.27,0,110,13.36,9.60,275.6
"2009-02-01 00:43:00",590841,17.02,316.2,4.168,0.762,12.62,103.7266,8.81,10.05,12.25,0,110.1,13.36,9.60,278.2
"2009-02-01 00:43:30",590842,16.72,309.7,4.754,1.092,12.54,103.7268,8.82,10.05,12.21,0,110.1,13.36,9.60,271.7
"2009-02-01 00:44:00",590843,16.95,305.5,4.34,0.636,12.12,103.7263,8.81,10.05,12.54,0,110.1,13.37,9.60,267.5
"2009-02-01 00:44:30",590844,17.5,312.3,3.879,0.789,12.34,103.7263,8.81,10.04,12.85,0,110.1,13.37,9.60,274.3
"2009-02-01 00:45:00",590845,17.13,315.2,5.895,0.883,12.5,103.7263,8.81,10.03,12.74,0,110.1,13.37,9.60,277.2
"2009-02-01 00:45:30",590846,18.36,316.3,5.151,1.16,12.98,103.7249,8.81,10.02,12.47,0,110,13.37,9.59,278.3
"2009-02-01 00:46:00",590847,17.58,316.4,5.312,1.221,13.04,103.7263,8.81,10,12.1,0,110,13.37,9.60,278.4
"2009-02-01 00:46:30",590848,17.25,313.1,7.55,1.151,13.18,103.7263,8.81,10.01,11.94,0,110.1,13.37,9.60,275.1
"2009-02-01 00:47:00",590849,14.86,299.3,6.384,0.939,12.74,103.7263,8.81,10.03,12.01,0,110.1,13.37,9.60,261.3
"2009-02-01 00:47:30",590850,15.75,303.4,8.52,1.163,12.19,103.7263,8.81,10.02,12.46,0,110,13.37,9.60,265.4
"2009-02-01 00:48:00",590851,14.93,309.8,8.36,1.027,12.54,103.7263,8.81,10.03,12.41,0,110,13.37,9.60,271.8
"2009-02-01 00:48:30",590852,14.19,295.6,5.386,1.739,9.64,103.7263,8.81,9.89,12.2,0,110,13.37,9.60,257.6
"2009-02-01 00:49:00",590853,15.76,295,6.354,1.172,10.23,103.7263,8.81,9.96,12.45,0,110,13.37,9.60,257.0
"2009-02-01 00:49:30",590854,15.49,301.1,6.563,1.825,9.95,103.7263,8.81,9.77,12.35,0,110,13.37,9.60,263.1
"2009-02-01 00:50:00",590855,16.79,314.5,4.854,1.036,13.55,103.7263,8.81,10.06,12.21,0,110,13.37,9.60,276.5
"2009-02-01 00:50:30",590856,15.97,314.3,5.653,1.477,13.1,103.7317,8.83,9.98,11.89,0,110,13.37,9.61,276.3
"2009-02-01 00:51:00",590857,17.5,312.9,4.086,0.865,13.8,103.7562,8.89,10.07,11.84,0,110,13.37,9.67,274.9
"2009-02-01 00:51:30",590858,15.52,304.5,4.386,0.759,13.14,103.7602,8.9,10.06,11.89,0,110,13.37,9.68,266.5
"2009-02-01 00:52:00",590859,14.89,304.2,5.746,1.282,11.84,103.7602,8.9,10.03,12.06,0,110,13.37,9.68,266.2
"2009-02-01 00:52:30",590860,14.9,302.5,6.188,1.137,11.49,103.7602,8.9,10,12.16,0,110,13.37,9.68,264.5
"2009-02-01 00:53:00",590861,13.32,292.1,1.247,0.423,8.47,103.7596,8.9,9.88,12.16,0,110,13.37,9.68,254.1
"2009-02-01 00:53:30",590862,15.19,300.3,5.885,1.188,11.55,103.7508,8.88,10.05,12.34,0,110.1,13.38,9.66,262.3
"2009-02-01 00:54:00",590863,16.36,301,5.913,1.255,12.19,103.728,8.82,9.99,12.49,0,110,13.38,9.60,263.0
"2009-02-01 00:54:30",590864,17.38,298.9,4.325,0.715,12.8,103.7263,8.81,10.06,12.77,0,110,13.37,9.60,260.9
"2009-02-01 00:55:00",590865,16.81,301.1,4.274,0.82,13.13,103.715,8.79,10.05,12.81,0,110,13.37,9.57,263.1
"2009-02-01 00:55:30",590866,17.77,298.5,4.424,0.679,12.71,103.693,8.73,10.02,12.76,0,110,13.37,9.51,260.5
"2009-02-01 00:56:00",590867,16.7,301.7,4.644,0.86,12.75,103.6924,8.73,10.02,12.75,0,110.1,13.37,9.51,263.7
"2009-02-01 00:56:30",590868,16.81,301.3,4.161,0.664,12.68,103.6924,8.73,10.01,12.68,0,110,13.37,9.51,263.3
"2009-02-01 00:57:00",590869,16.33,301.8,3.782,0.681,12.76,103.6924,8.73,9.97,12.46,0,110,13.37,9.51,263.8
"2009-02-01 00:57:30",590870,16.06,306.5,4.074,0.898,12.37,103.6924,8.73,9.99,12.39,0,110,13.37,9.51,268.5
"2009-02-01 00:58:00",590871,15.13,309.1,5.573,0.761,12.27,103.6924,8.73,9.98,12.39,0,110,13.37,9.51,271.1
"2009-02-01 00:58:30",590872,14.47,309.5,7.523,1.714,11.65,103.6924,8.73,9.93,12.21,0,110,13.37,9.51,271.5
"2009-02-01 00:59:00",590873,12.55,303,6.979,1.318,9.63,103.6938,8.73,9.75,11.96,0,110,13.37,9.51,265.0
"2009-02-01 00:59:30",590874,15.35,295,10.04,1.537,9.71,103.6975,8.74,9.84,12.27,0,110,13.37,9.52,257.0
"2009-02-01 01:00:00",590875,15.21,301.4,5.23,1.009,10.3,103.6927,8.73,9.86,12.42,0,110,13.37,9.51,263.4
"2009-02-01 01:00:30",590876,16.95,312.9,4.569,0.787,13.45,103.6924,8.73,9.99,12.54,0,110,13.38,9.51,274.9
"2009-02-01 01:01:00",590877,17.89,314.5,4.702,0.914,13.8,103.6927,8.73,10,12.53,0,110,13.38,9.51,276.5
"2009-02-01 01:01:30",590878,16.28,320.6,3.843,0.796,13.38,103.6924,8.73,9.99,12.42,0,110,13.38,9.51,282.6
"2009-02-01 01:02:00",590879,16.13,319.4,4.707,0.717,13,103.6927,8.73,10.01,12.52,0,110,13.38,9.51,281.4
"2009-02-01 01:02:30",590880,14.93,304.7,6.891,1.162,12.78,103.6927,8.73,10,12.78,0,110,13.38,9.51,266.7
"2009-02-01 01:03:00",590881,13.03,304.2,8.64,1.211,12.37,103.6916,8.73,9.99,12.88,0,110,13.38,9.51,266.2
"2009-02-01 01:03:30",590882,9.93,309.7,8.28,1.307,11.21,103.6667,8.66,9.89,12.77,0,110,13.38,9.44,271.7
"2009-02-01 01:04:00",590883,12.25,296.8,4.696,1.327,7.733,103.6597,8.64,9.67,12.58,0,110,13.41,9.43,258.8
"2009-02-01 01:04:30",590884,14.4,303.5,5.353,1.81,8.87,103.6612,8.65,9.61,12.48,0,110,13.38,9.43,265.5
"2009-02-01 01:05:00",590885,13.84,306.9,9.17,1.222,10.93,103.6609,8.65,9.84,12.69,0,110,13.39,9.43,268.9
"2009-02-01 01:05:30",590886,14.67,310.6,4.2,1.135,13.67,103.6612,8.65,9.89,12.72,0,110,13.39,9.43,272.6
"2009-02-01 01:06:00",590887,13.49,316.2,4.591,0.884,13.58,103.6635,8.65,9.92,12.63,0,110,13.39,9.44,278.2
"2009-02-01 01:06:30",590888,13.36,315.9,3.556,1.248,12.93,103.6661,8.66,9.92,12.63,0,110,13.39,9.44,277.9
"2009-02-01 01:07:00",590889,14.48,309.7,6.7,1.737,12.81,103.6653,8.66,9.9,12.71,0,110,13.39,9.44,271.7
"2009-02-01 01:07:30",590890,15.81,313.8,6.019,1.781,11.39,103.6679,8.66,9.77,12.4,0,110,13.39,9.45,275.8
"2009-02-01 01:08:00",590891,11.98,311,4.615,0.949,9.89,103.6693,8.67,9.75,12.23,0,110,13.39,9.45,273.0
"2009-02-01 01:08:30",590892,12.58,311.5,9.79,1.779,11.47,103.6962,8.74,9.74,12.16,0,110,13.39,9.52,273.5
"2009-02-01 01:09:00",590893,13.26,311.7,10.46,1.285,11.91,103.7047,8.76,9.86,12.42,0,110,13.39,9.54,273.7
"2009-02-01 01:09:30",590894,13.2,311.8,6.049,1.214,12.81,103.7044,8.76,9.87,12.39,0,110,13.39,9.54,273.8
"2009-02-01 01:10:00",590895,15.66,307.7,6.56,1.613,13.21,103.707,8.76,9.96,12.47,0,110,13.39,9.55,269.7
"2009-02-01 01:10:30",590896,15.66,315.8,5.681,1.568,13.12,103.7114,8.78,9.92,12.28,0,110,13.39,9.56,277.8
"2009-02-01 01:11:00",590897,15.21,311.8,7.595,1.727,12.63,103.712,8.78,9.92,12.11,0,110,13.38,9.56,273.8
"2009-02-01 01:11:30",590898,13.4,304.4,7.844,1.592,11.76,103.7371,8.84,9.91,11.99,0,110,13.38,9.62,266.4
"2009-02-01 01:12:00",590899,12.5,289.9,7.022,0.828,9.46,103.7465,8.87,9.85,11.95,0,110,13.39,9.65,251.9
"2009-02-01 01:12:30",590900,12.78,313.2,6.244,1.601,12.46,103.748,8.87,9.92,11.91,0,110,13.38,9.65,275.2
"2009-02-01 01:13:00",590901,14.26,304.6,8.58,1.033,12.43,103.7646,8.91,9.95,11.85,0,110,13.38,9.70,266.6
"2009-02-01 01:13:30",590902,13.68,308.6,7.739,1.218,13.14,103.7851,8.96,10.05,11.97,0,110,13.38,9.75,270.6
"2009-02-01 01:14:00",590903,13.16,315.9,7.095,0.954,12.91,103.7824,8.96,10.07,12.01,0,110,13.38,9.74,277.9
"2009-02-01 01:14:30",590904,13.09,301.1,7.251,1.656,12.27,103.7845,8.96,10.01,12.08,0,110,13.39,9.75,263.1
"2009-02-01 01:15:00",590905,14.62,305.1,6.745,1.749,11.18,103.7848,8.96,10.05,12.05,0,110,13.38,9.75,267.1
"2009-02-01 01:15:30",590906,12.41,306.2,5.94,1.528,11.49,103.7862,8.97,9.94,11.81,0,110,13.38,9.75,268.2
"2009-02-01 01:16:00",590907,10.56,304.7,9.4,1.433,10.26,103.8074,9.02,9.96,11.7,0,110,13.39,9.81,266.7
"2009-02-01 01:16:30",590908,13.86,302.8,5.651,1.739,12.2,103.819,9.05,10.12,11.9,0,110,13.39,9.83,264.8
"2009-02-01 01:17:00",590909,14.07,302.6,7.74,1.769,12.35,103.8159,9.04,10.18,12.12,0,110,13.39,9.83,264.6
"2009-02-01 01:17:30",590910,13.02,303.5,9.02,1.422,11.6,103.8117,9.03,10.09,11.98,0,110,13.39,9.82,265.5
"2009-02-01 01:18:00",590911,12.95,312.4,7.083,1.327,12.09,103.8111,9.03,10.14,11.91,0,110,13.39,9.81,274.4
"2009-02-01 01:18:30",590912,12.47,301.4,7.949,1.703,11.14,103.8103,9.03,10.13,11.95,0,110,13.39,9.81,263.4
"2009-02-01 01:19:00",590913,14.36,300.9,5.727,0.95,11.78,103.8035,9.01,10.08,11.96,0,110,13.39,9.80,262.9
"2009-02-01 01:19:30",590914,13.17,313.1,6.483,1.179,12.15,103.794,8.99,10.11,12.05,0,110,13.39,9.77,275.1
"2009-02-01 01:20:00",590915,13.31,309.1,7.366,1.284,12.19,103.788,8.97,10.15,12.12,0,110,13.39,9.76,271.1
"2009-02-01 01:20:30",590916,11.81,309.9,5.756,1.27,12.03,103.788,8.97,10.07,12.04,0,110,13.39,9.76,271.9
"2009-02-01 01:21:00",590917,9.73,299.6,5.417,1.243,12.11,103.788,8.97,10.09,12.05,0,110,13.39,9.76,261.6
"2009-02-01 01:21:30",590918,10.21,286.9,6.036,1.736,10.83,103.7864,8.97,10,12.12,0,110,13.39,9.75,248.9
"2009-02-01 01:22:00",590919,10.54,297.3,10.33,1.01,10.91,103.7598,8.9,10.02,12.34,0,110,13.39,9.68,259.3
"2009-02-01 01:22:30",590920,9.9,299.2,9.5,1.555,10.86,103.7533,8.88,10.01,12.42,0,110,13.39,9.67,261.2
"2009-02-01 01:23:00",590921,10.84,292.1,8.57,0.758,10.62,103.726,8.81,9.88,12.39,0,110,13.39,9.60,254.1
"2009-02-01 01:23:30",590922,11.53,294.4,6.327,1.103,10.35,103.7249,8.81,9.97,12.57,0,110,13.4,9.59,256.4
"2009-02-01 01:24:00",590923,12.7,299.8,7.57,0.924,11.89,103.7104,8.77,9.95,12.64,0,110,13.4,9.56,261.8
"2009-02-01 01:24:30",590924,10.67,299.7,7.256,1.291,11.89,103.6898,8.72,9.93,12.59,0,110,13.4,9.50,261.7
"2009-02-01 01:25:00",590925,12.08,298.7,8.12,1.281,12.2,103.6901,8.72,9.93,12.46,0,110,13.4,9.50,260.7
"2009-02-01 01:25:30",590926,12.44,295.2,8.49,1.227,11.43,103.6928,8.73,9.86,12.19,0,110,13.4,9.51,257.2
"2009-02-01 01:26:00",590927,11.27,300.5,8.65,1.569,10.44,103.6922,8.73,9.83,12.11,0,110,13.4,9.51,262.5
"2009-02-01 01:26:30",590928,11.41,320.8,5.13,1.45,12.02,103.6916,8.73,9.92,12.2,0,110,13.4,9.51,282.8
"2009-02-01 01:27:00",590929,9.61,313.6,7.873,1.091,11.71,103.6936,8.73,9.83,12.17,0,110,13.4,9.51,275.6
"2009-02-01 01:27:30",590930,10.53,294.7,5.374,1.488,11.83,103.6931,8.73,9.91,12.45,0,110,13.39,9.51,256.7
"2009-02-01 01:28:00",590931,9.24,298.7,6.402,1.326,12.01,103.6928,8.73,9.89,12.5,0,110,13.39,9.51,260.7
"2009-02-01 01:28:30",590932,10.58,298.4,7.497,1.428,10.9,103.6917,8.73,9.82,12.55,0,110,13.39,9.51,260.4
"2009-02-01 01:29:00",590933,10.53,292.4,6.849,1.515,9.45,103.6708,8.67,9.67,12.6,0,110,13.39,9.45,254.4
"2009-02-01 01:29:30",590934,11.07,290.7,7.707,1.006,11.03,103.6598,8.64,9.73,12.76,0,110,13.39,9.43,252.7
"2009-02-01 01:30:00",590935,11.76,294.1,4.394,1.505,11.84,103.6496,8.62,9.8,12.93,0,110,13.39,9.40,256.1
"2009-02-01 01:30:30",590936,12.44,298.8,5.187,1.102,12.69,103.6259,8.56,9.81,13.18,0,110,13.39,9.34,260.8
"2009-02-01 01:31:00",590937,10.29,304.7,6.185,1.251,11.89,103.6219,8.55,9.73,13.12,0,110,13.39,9.33,266.7
"2009-02-01 01:31:30",590938,10.42,300.8,4.395,1.746,11.03,103.6056,8.51,9.71,12.92,0,110,13.39,9.29,262.8
"2009-02-01 01:32:00",590939,10.12,284.6,6.166,0.934,8.47,103.5976,8.49,9.49,12.73,0,110,13.39,9.27,246.6
"2009-02-01 01:32:30",590940,11.56,292.5,7.383,1.43,10.5,103.592,8.47,9.55,12.82,0,110,13.39,9.25,254.5
"2009-02-01 01:33:00",590941,12.94,312.1,8.25,1.411,12.2,103.592,8.47,9.64,12.92,0,110,13.4,9.25,274.1
"2009-02-01 01:33:30",590942,15.57,316.8,4.67,1.198,13.4,103.592,8.47,9.72,12.92,0,110,13.4,9.25,278.8
"2009-02-01 01:34:00",590943,13.71,319.8,7.024,1.067,13.04,103.5906,8.47,9.69,12.88,0,110,13.4,9.25,281.8
"2009-02-01 01:34:30",590944,10.84,317.9,6.748,1.346,12.84,103.5906,8.47,9.67,12.84,0,110,13.4,9.25,279.9
"2009-02-01 01:35:00",590945,10.71,319.7,6.801,0.728,12.48,103.5897,8.46,9.61,12.76,0,110,13.4,9.25,281.7
"2009-02-01 01:35:30",590946,7.758,312.7,4.342,0.974,7.7,103.5889,8.46,9.36,12.52,0,110,13.4,9.24,274.7
"2009-02-01 01:36:00",590947,7.504,309.2,4.035,0.602,7.836,103.5892,8.46,9.35,12.44,0,110,13.43,9.25,271.2
"2009-02-01 01:36:30",590948,7.919,298.7,4.878,0.282,8.24,103.592,8.47,9.38,12.37,0,110,13.44,9.25,260.7
"2009-02-01 01:37:00",590949,10.53,282.4,6.614,1.678,12.39,103.5731,8.42,9.62,12.95,0,110,13.4,9.20,244.4
"2009-02-01 01:37:30",590950,11.3,291.2,6.019,0.867,13.35,103.5581,8.38,9.61,13.18,0,110,13.4,9.17,253.2
"2009-02-01 01:38:00",590951,9.85,294.5,6.073,0.593,13.21,103.5581,8.38,9.6,13.15,0,110,13.4,9.17,256.5
"2009-02-01 01:38:30",590952,9.82,284.3,3.746,0.84,12.31,103.5544,8.37,9.54,13.1,0,110,13.4,9.16,246.3
"2009-02-01 01:39:00",590953,8.68,273.7,2.983,0.325,7.653,103.5338,8.32,9.29,12.93,0,110,13.4,9.10,235.7
"2009-02-01 01:39:30",590954,7.916,272.2,5.221,0.784,7.574,103.5245,8.3,9.24,12.87,0,110,13.44,9.08,234.2
"2009-02-01 01:40:00",590955,9.15,279.9,10.11,1.436,10.04,103.5242,8.3,9.33,12.84,0,110,13.41,9.08,241.9
"2009-02-01 01:40:30",590956,10.19,291.1,8.2,1.039,11.94,103.5242,8.3,9.51,13,0,110,13.41,9.08,253.1
"2009-02-01 01:41:00",590957,9.42,298.4,5.372,0.81,13.48,103.5313,8.32,9.54,12.94,0,110,13.41,9.10,260.4
"2009-02-01 01:41:30",590958,9.97,293.3,3.72,1.03,12.69,103.5477,8.36,9.56,12.96,0,110,13.41,9.14,255.3
"2009-02-01 01:42:00",590959,10.07,286.1,7.73,1.249,10.6,103.5505,8.36,9.42,12.87,0,110,13.41,9.15,248.1
"2009-02-01 01:42:30",590960,9.54,279.8,5.07,0.742,7.903,103.5355,8.33,9.23,12.73,0,110,13.41,9.11,241.8
"2009-02-01 01:43:00",590961,9.26,289,6.46,1.166,8.66,103.5321,8.32,9.34,12.72,0,110,13.41,9.10,251.0
"2009-02-01 01:43:30",590962,12.39,305.2,6.812,1.568,11.83,103.5491,8.36,9.4,12.65,0,110,13.4,9.14,267.2
"2009-02-01 01:44:00",590963,10.34,314.4,9.46,1.538,13.31,103.5522,8.37,9.57,12.67,0,110,13.4,9.15,276.4
"2009-02-01 01:44:30",590964,9.43,295.8,12.63,0.943,13.16,103.5581,8.38,9.55,12.59,0,110,13.4,9.17,257.8
"2009-02-01 01:45:00",590965,10.9,289.3,10.92,1.059,12.25,103.5581,8.38,9.49,12.78,0,110,13.4,9.17,251.3
"2009-02-01 01:45:30",590966,9.73,294.6,7.397,1.348,9.22,103.5581,8.38,9.34,12.58,0,110,13.4,9.17,256.6
"2009-02-01 01:46:00",590967,8.89,296.3,5.839,1.27,8.81,103.5581,8.38,9.35,12.52,0,110,13.4,9.17,258.3
"2009-02-01 01:46:30",590968,9.75,300.8,6.181,1.069,10.48,103.5581,8.38,9.33,12.52,0,110,13.4,9.17,262.8
"2009-02-01 01:47:00",590969,9.67,306.5,6.804,0.791,11.91,103.5581,8.38,9.53,12.75,0,110,13.4,9.17,268.5
"2009-02-01 01:47:30",590970,10.19,288,8.64,0.819,13.23,103.5581,8.38,9.59,12.84,0,110,13.4,9.17,250.0
"2009-02-01 01:48:00",590971,11.38,297.6,9.65,1.545,12.43,103.5581,8.38,9.59,12.91,0,110,13.4,9.17,259.6
"2009-02-01 01:48:30",590972,11.96,289.2,8.56,1.46,9.92,103.553,8.37,9.38,12.73,0,110,13.4,9.15,251.2
"2009-02-01 01:49:00",590973,10.55,289.4,10.46,1.801,9.44,103.5378,8.33,9.4,12.79,0,110,13.41,9.11,251.4
"2009-02-01 01:49:30",590974,10.48,292.6,3.991,0.805,8.33,103.5242,8.3,9.32,12.63,0,110,13.41,9.08,254.6
"2009-02-01 01:50:00",590975,14.48,296.3,6.182,1.809,12.16,103.5268,8.3,9.49,12.52,0,110,13.41,9.09,258.3
"2009-02-01 01:50:30",590976,15.87,312.7,9.22,1.304,13.09,103.5273,8.31,9.57,12.51,0,110,13.41,9.09,274.7
"2009-02-01 01:51:00",590977,14.65,319.8,5.561,1.48,13.13,103.5361,8.33,9.57,12.38,0,110,13.41,9.11,281.8
"2009-02-01 01:51:30",590978,10.78,307.1,13.36,1.39,12.77,103.5508,8.37,9.56,12.34,0,110,13.41,9.15,269.1